星链-36135(STARLINK-36135)

导读 | 豆包AI

STARLINK-36135是SpaceX星链互联网星座项目中的一颗卫星,于2025年12月8日由美国发射,归属美国太空探索技术公司。它加入了近地轨道星链组网,旨在为全球尤其是偏远区域用户提供高速低延迟的互联网接入服务,进一步扩展星链星座的服务覆盖范围与网络容量。

基本信息
目录编号:
66986
目录名称:
STARLINK-36135
国际标识:
2025-288AD
轨道中心:
EARTH
卫星名称:
星链-36135
卫星全名:
星链-36135(STARLINK-36135)
卫星状态:
在轨 (已飞行96 天)
发射日期:
2025-12-08 UTC
国别 :
美国 (US)
星等 :
--
轨道信息
数据来源 国际轨道数据
星历时间: 2026-03-13T12:46:41+0800
1天前
查看轨道信息
半长轴: 6861.126km
偏心率: 0.0001853
轨道倾角: 43.005°
近地点辐角 251.631°
升交点赤经 3.671°
平近点角 108.434°
近地点: 481.717km
远地点: 484.261km
周期: 94.265分钟
每日圈数: 15.276004
详细信息
固有亮度:
5
最大亮度:
2.5
卫星平台:
Starlink V1.0
覆盖范围:
全球
运营商:
太空探索技术公司
运营商所在国:
美国
制造商(研发单位):
太空探索技术公司
制造商所在国:
美国
使用方式:
暂无
卫星简介
Starlink 计划是 SpaceX 推出的全球卫星互联网项目,通过发射低轨道卫星,为全球尤其是偏远地区提供高速、低延迟的互联网服务。自 2019 年起,Starlink 已部署数千颗卫星,旨在缩小全球数字鸿沟,推动互联网普及。该项目还为军事、航空等行业提供通信支持,带来广泛经济效益。
2D轨道图
3D轨道图
轨道高度分析图
轨道倾角分析图
轨道综合分析图
查看轨道综合分析图